sat.trackr.live / text

‹ back to catalog

ECHOSTAR 19

NORAD 41893 · 2016-079A

PAYLOAD ACTIVE UNKNOWN

§ Identity

Operator
Country
US
Launch date
2016-12-18
Launch site
AFETR
Launch vehicle
Mass (kg)
RCS (m²)
7.19

Purposes: comms

External: N2YO · Heavens-Above · Gunter

§ Orbital elements

Epoch: 2026-05-25T03:16:33.003840Z

Period
1,436.09 min
Inclination
0.0154°
Eccentricity
0.0001267
Mean motion
1.00271985 rev/d
Perigee alt
35,781.2 km
Apogee alt
35,791.9 km
Semi-major
42,164.7 km
B*
0.0000e+0
RAAN
339.6723°
Arg perigee
89.4673°
Mean anomaly
125.6253°
Rev number
3,447

§ Raw data

ECHOSTAR 191 41893U 16079A   26145.13649310 -.00000141  00000+0  00000+0 0  99982 41893   0.0154 339.6723 0001267  89.4673 125.6253  1.00271985 34478

JSON: /api/v1/satellites/41893 · /tle

For live sub-satellite position, see the globe view (requires WebGL).

§ Visibility from observer

Set your observer location to see the next 7 days of passes ≥ 10°. The values pass through the URL so the page stays shareable.

No JS? Fill the form by hand. The geolocation button needs JavaScript.